Regional Weather Roundup
Issued by NWS

Home | Current Version | Previous Version | Graphics & Text | Print | Product List | Glossary On
Versions: 1 2 3 4 5 6 7 8 9 10 11 12 13 14 15 16 17 18 19 20 21 22 23 24 25 26 27 28 29 30 31 32 33 34 35 36 37 38 39 40 41 42 43 44 45 46 47 48 49 50
000
ASUS43 KTOP 291708
RWRKS

WEATHER ROUNDUP FOR KANSAS
NATIONAL WEATHER SERVICE GOODLAND KS
1200 PM CDT SUN MAR 29 2015

NOTE:  "FAIR" INDICATES FEW OR NO CLOUDS BELOW 12,000 FEET WITH NO
SIGNIFICANT WEATHER AND/OR OBSTRUCTIONS TO VISIBILITY.

KSZ001>006-013>018-027>032-041>047-291800-
NORTHWEST KANSAS

CITY           SKY/WX    TMP DP  RH WIND       PRES   REMARKS
GOODLAND       SUNNY     58  27  30 NW20G36   30.24S
HAYS           MOSUNNY   64  27  24 N31G39    30.13R
HILL CITY      SUNNY     65  28  24 N24G36    30.16R
RUSSELL        MOSUNNY   66  30  26 NW28G41   30.10R
$$

KSZ061>065-074>080-084>089-291800-
SOUTHWEST KANSAS

CITY           SKY/WX    TMP DP  RH WIND       PRES   REMARKS
DODGE CITY     SUNNY     67  22  18 N30G38    30.15R
ELKHART          N/A     62  26  25 N20         N/A
GARDEN CITY    MOSUNNY   62  25  24 N29G43    30.18R
GREAT BEND     SUNNY     66  28  24 N26G37    30.11R
LIBERAL        SUNNY     66  28  24 N30G36    30.21R
PRATT          MOSUNNY   70  30  23 N30G38    30.09R
$$

KSZ066>073-081>083-090>101-291800-
SOUTHEAST KANSAS

CITY           SKY/WX    TMP DP  RH WIND       PRES   REMARKS
CHANUTE        MOSUNNY   54  41  61 SW10      30.03S
COFFEYVILLE    PTSUNNY   55  40  56 S9        30.03F
HUTCHINSON     MOSUNNY   74  33  22 N25G32    30.04R
MEDICINE LODGE   N/A     72  32  23 N30G46    30.03R
NEWTON         MOSUNNY   64  45  48 NW13      30.05R
PARSONS        MOSUNNY   56  41  57 S5        30.04F
WICHITA INTL   PTSUNNY   64  45  49 NW9       30.04R
WICHITA JABRA  PTSUNNY   63  46  54 NW14      30.03R
WICHITA MCCONL PTSUNNY   61  46  56 NW12      30.03R
WINFIELD       MOSUNNY   60  47  61 W6        30.03R
$$

KSZ007>012-019>026-033>040-048>060-102>105-291800-
NORTHEAST KANSAS

CITY           SKY/WX    TMP DP  RH WIND       PRES   REMARKS
CONCORDIA      MOSUNNY   66  35  31 N22G35    30.06R
EMPORIA        CLOUDY    62  45  53 W9        30.02R
LAWRENCE       CLOUDY    57  42  57 SW10      30.00F
MARYSVILLE     PTSUNNY   63  39  42 NW28G33   30.02R
OLATHE IND     PTSUNNY   53  41  63 SW10      30.01R
OLATHE EXE     PTSUNNY   51  41  68 W8        30.00R
SALINA         PTSUNNY   67  38  34 N13       30.05R
TOPEKA BILLARD CLOUDY    60  45  57 SW8       30.01R
TOPEKA FORBES  PTSUNNY   60  44  55 MISG      30.01R
$$



USA.gov is the U.S. government's official web portal to all federal, state and local government web resources and services.